Weather reports worldwide

Advertisment
Benson, United Kingdom (3658): temperature & dewpoint: 25.09.2020 22:00:00 - 01.10.2020 22:00:00 (BST)Benson, United Kingdom (3658): temperature -20cm & temperature -100cm: 25.09.2020 22:00:00 - 01.10.2020 22:00:00 (BST)Benson, United Kingdom (3658): wind speed & gusts: 25.09.2020 22:00:00 - 01.10.2020 22:00:00 (BST)Benson, United Kingdom (3658): wind direction: 25.09.2020 22:00:00 - 01.10.2020 22:00:00 (BST)Benson, United Kingdom (3658): reduced air pressure: 25.09.2020 22:00:00 - 01.10.2020 22:00:00 (BST)Benson, United Kingdom (3658): visibility: 25.09.2020 22:00:00 - 01.10.2020 22:00:00 (BST)Benson, United Kingdom (3658): precipitation: 25.09.2020 22:00:00 - 01.10.2020 22:00:00 (BST)
Date & Time tt [°C] td [°C] tt -20cm [°C] tt -100cm [°C] ff [km/h] ff [kn] fx [km/h] fx [kn] dd ppp [hPa] vv [km] rr [mm]
01.10.2020 22:00:00 9,7 7,9 - - 16 9 - - ESE 993,2 9 0,6
01.10.2020 21:00:00 10,8 6,8 - - 15 8 - - ESE 993,6 10 -
01.10.2020 20:00:00 10,7 6,5 - - 13 7 - - ESE 994,4 10 0,0
01.10.2020 19:00:00 9,9 6,1 - - 11 6 - - ESE 994,9 10 0,0
01.10.2020 18:00:00 12,4 4,9 - - 11 6 - - SSW 995,5 10 0,0
01.10.2020 17:00:00 13,5 5,7 - - 9 5 - - SSW 996,1 10 0,0
01.10.2020 16:00:00 14,3 2,8 - - 16 9 - - SW 996,8 10 0,0
01.10.2020 15:00:00 13,9 4,8 - - 15 8 - - WSW 997,2 10 0,0
01.10.2020 14:00:00 13,9 5,6 - - 16 9 - - WSW 997,7 10 0,0
01.10.2020 13:00:00 14,3 6,4 - - 18 10 - - WSW 998,1 10 0,0
01.10.2020 12:00:00 12,6 8,4 - - 11 6 - - WNW 998,4 25 0,0
01.10.2020 11:00:00 12,1 8,3 - - 13 7 - - W 998,5 10 0,0
01.10.2020 10:00:00 11,3 8,7 14,0 14,9 13 7 - - W 998,3 10 0,0
01.10.2020 09:00:00 10,9 10,0 - - 5 3 - - W 998,6 20 0,0
01.10.2020 08:00:00 9,7 9,0 - - 9 5 - - W 998,6 10 0,0
01.10.2020 07:00:00 10,0 9,3 - - 11 6 - - W 998,6 - 0,0
01.10.2020 06:00:00 10,5 9,7 - - 5 3 - - SW 998,6 - 0,0
01.10.2020 05:00:00 11,0 10,0 - - 4 2 - - SW 998,7 - -
01.10.2020 04:00:00 11,1 10,6 - - 9 5 - - WSW 999,0 - 0,0
01.10.2020 03:00:00 10,5 10,1 - - 11 6 - - SSW 999,1 - 0,0
01.10.2020 02:00:00 11,3 11,0 - - 15 8 - - S 999,4 10 0,0
01.10.2020 01:00:00 10,4 9,7 - - 11 6 - - S 999,8 25 0,0
01.10.2020 00:00:00 11,8 11,2 - - 11 6 - - S 1000,3 10 0,0
30.09.2020 23:00:00 12,3 11,6 - - 11 6 - - SSW 1000,2 10 0,0
30.09.2020 22:00:00 13,7 12,8 - - 15 8 - - SSW 1000,4 10 0,6
30.09.2020 21:00:00 14,3 13,4 - - 18 10 - - S 1000,4 10 0,6
30.09.2020 20:00:00 14,3 13,0 - - 26 14 - - S 1001,0 10 0,2
30.09.2020 19:00:00 14,3 13,1 - - 28 15 - - S 1001,3 10 0,4
30.09.2020 18:00:00 14,3 13,1 - - 31 17 48 26 S 1001,9 10 0,2
30.09.2020 17:00:00 14,1 13,0 - - 29 16 48 26 S 1002,4 10 0,4
30.09.2020 16:00:00 14,5 13,2 - - 26 14 48 26 S 1003,5 10 1,0
30.09.2020 15:00:00 15,2 13,7 - - 28 15 - - S 1003,8 10 0,2
30.09.2020 14:00:00 16,0 12,3 - - 24 13 - - S 1004,8 10 0,0
30.09.2020 13:00:00 15,4 12,8 - - 26 14 - - S 1005,7 10 0,2
30.09.2020 12:00:00 14,8 12,7 - - 26 14 - - S 1006,5 10 0,0
30.09.2020 11:00:00 14,4 11,6 - - 22 12 - - SSE 1007,5 10 0,0
30.09.2020 10:00:00 12,7 10,6 - - 18 10 - - S 1008,4 10 0,0
30.09.2020 09:00:00 11,9 9,8 - - 18 10 - - S 1009,4 10 0,0
30.09.2020 08:00:00 10,6 10,0 - - 13 7 - - SSE 1009,8 20 0,0
30.09.2020 07:00:00 8,8 8,3 - - 13 7 - - S 1010,4 - 0,0
30.09.2020 06:00:00 8,9 8,7 - - 11 6 - - S 1010,8 - -
30.09.2020 05:00:00 9,6 9,4 - - 13 7 - - S 1011,4 - 0,0
30.09.2020 04:00:00 8,7 7,7 - - 8 4 - - SSE 1011,9 - -
30.09.2020 03:00:00 8,8 8,3 - - 9 5 - - SSE 1012,7 - 0,0
30.09.2020 02:00:00 8,1 7,4 - - 2 1 - - S 1013,6 - 0,0
30.09.2020 01:00:00 8,4 7,0 - - 11 6 - - S 1014,0 10 0,0
30.09.2020 00:00:00 10,7 7,8 - - 5 3 - - S 1014,1 - 0,0
29.09.2020 23:00:00 12,7 9,8 - - 8 4 - - SSE 1014,5 - 0,0
29.09.2020 22:00:00 11,6 9,6 - - 5 3 - - SSW 1015,0 10 0,0
29.09.2020 21:00:00 9,0 7,7 - - 2 1 - - S 1015,2 10 0,0
29.09.2020 20:00:00 10,2 8,2 - - 4 2 - - E 1015,3 10 0,0
29.09.2020 19:00:00 13,6 9,4 - - 5 3 - - SSE 1015,2 10 0,0
29.09.2020 18:00:00 15,9 7,8 - - 5 3 - - WSW 1015,1 10 0,0
29.09.2020 17:00:00 17,9 7,9 - - 9 5 - - WSW 1015,1 10 0,0
29.09.2020 16:00:00 16,4 9,6 - - 9 5 - - WNW 1015,5 10 0,0
29.09.2020 15:00:00 16,9 11,4 - - 4 2 - - NW 1015,6 10 -
29.09.2020 14:00:00 17,6 13,2 - - 4 2 - - N 1016,0 20 0,0
29.09.2020 13:00:00 15,2 12,2 - - 11 6 - - W 1016,4 10 0,0
29.09.2020 12:00:00 14,9 12,7 - - 9 5 - - WNW 1016,3 10 0,0
29.09.2020 11:00:00 14,2 13,0 - - 9 5 - - NW 1016,3 6 0,0
29.09.2020 10:00:00 13,6 12,7 14,0 15,0 13 7 - - NW 1016,0 5 0,0
29.09.2020 09:00:00 13,6 12,9 - - 11 6 - - NW 1015,6 4,0 0,0
29.09.2020 08:00:00 13,5 13,1 - - 9 5 - - NW 1015,0 4,0 0,0
29.09.2020 07:00:00 13,5 13,2 - - 9 5 - - NW 1014,7 - 0,2
29.09.2020 06:00:00 13,6 13,4 - - 9 5 - - NW 1014,3 - 0,2
29.09.2020 05:00:00 14,0 13,8 - - 9 5 - - NW 1013,9 - 0,6
29.09.2020 04:00:00 14,9 14,8 - - 4 2 - - SSW 1013,6 - 1,4
29.09.2020 03:00:00 14,8 14,7 - - 8 4 - - S 1013,8 - 0,8
29.09.2020 02:00:00 14,8 14,6 - - 9 5 - - S 1013,8 - 0,0
29.09.2020 01:00:00 14,9 14,6 - - 9 5 - - S 1013,8 - 1,0
29.09.2020 00:00:00 15,1 14,4 - - 9 5 - - S 1014,0 3,5 0,0
28.09.2020 23:00:00 15,0 14,0 - - 9 5 - - S 1014,1 10 0,0
28.09.2020 22:00:00 15,3 13,2 - - 8 4 - - S 1014,2 13 0,0
28.09.2020 21:00:00 15,5 12,9 - - 5 3 - - S 1014,0 10 0,0
28.09.2020 20:00:00 16,1 12,8 - - 8 4 - - SSW 1013,8 10 0,0
28.09.2020 19:00:00 16,5 12,6 - - 5 3 - - SW 1013,3 10 0,0
28.09.2020 18:00:00 16,5 11,9 - - 5 3 - - WSW 1013,0 10 0,0
28.09.2020 17:00:00 17,3 11,5 - - 13 7 - - WSW 1012,8 10 0,0
28.09.2020 16:00:00 17,0 11,3 - - 11 6 - - W 1012,8 10 0,0
28.09.2020 15:00:00 15,9 11,1 - - 11 6 - - WNW 1013,1 10 0,0
28.09.2020 14:00:00 15,6 10,1 - - 11 6 - - WNW 1013,3 30 0,0
28.09.2020 13:00:00 15,2 9,5 - - 9 5 - - W 1013,7 10 0,0
28.09.2020 12:00:00 14,0 8,7 - - 11 6 - - W 1014,0 10 0,0
28.09.2020 11:00:00 12,1 7,0 - - 4 2 - - NE 1014,2 10 0,0
28.09.2020 10:00:00 8,7 5,6 13,5 15,2 2 1 - - ESE 1014,3 10 0,0
28.09.2020 09:00:00 5,7 4,5 - - 2 1 - - S 1014,4 10 0,0
28.09.2020 08:00:00 2,3 1,7 - - 2 1 - - E 1014,2 10 0,0
28.09.2020 07:00:00 1,2 0,3 - - 4 2 - - SE 1014,0 - 0,0
28.09.2020 06:00:00 2,7 1,4 - - 4 2 - - NE 1013,7 - -
28.09.2020 05:00:00 4,2 2,8 - - 5 3 - - NW 1013,9 - 0,0
28.09.2020 04:00:00 5,1 3,7 - - 9 5 - - WNW 1014,4 - -
28.09.2020 03:00:00 5,7 4,2 - - 5 3 - - W 1014,7 - 0,0
28.09.2020 02:00:00 6,3 5,8 - - 8 4 - - WNW 1014,9 - 0,0
28.09.2020 01:00:00 4,8 3,1 - - 5 3 - - NW 1015,1 - 0,0
28.09.2020 00:00:00 7,2 5,4 - - 5 3 - - NW 1014,9 - 0,0
27.09.2020 23:00:00 7,9 5,6 - - 5 3 - - NNW 1015,0 - 0,0
27.09.2020 22:00:00 8,4 5,8 - - 8 4 - - NNW 1014,9 - 0,0
27.09.2020 21:00:00 8,8 6,2 - - 8 4 - - NNW 1014,7 - -
27.09.2020 20:00:00 9,3 6,1 - - 5 3 - - N 1014,4 - 0,0
27.09.2020 19:00:00 11,6 6,1 - - 9 5 - - N 1013,8 - 0,0
27.09.2020 18:00:00 13,9 5,3 - - 21 11 - - NNW 1013,4 - -
27.09.2020 17:00:00 14,9 6,4 - - 18 10 - - NNW 1013,1 - -
27.09.2020 16:00:00 14,6 5,7 - - 21 11 - - N 1013,4 - 0,0
27.09.2020 15:00:00 14,1 6,2 - - 28 15 - - N 1013,7 - 0,0
27.09.2020 14:00:00 13,9 5,8 - - 28 15 - - NNW 1013,7 - 0,0
27.09.2020 13:00:00 12,9 6,2 - - 22 12 - - NNW 1013,9 - 0,0
27.09.2020 12:00:00 12,5 6,3 - - 26 14 - - NNW 1013,7 - 0,0
27.09.2020 11:00:00 11,5 5,8 - - 28 15 - - N 1013,7 - 0,0
27.09.2020 10:00:00 10,4 5,1 - - 21 11 - - NNW 1013,6 - -
27.09.2020 09:00:00 9,6 4,7 - - 21 11 - - NNW 1013,7 - -
27.09.2020 08:00:00 9,1 4,4 - - 21 11 - - NW 1013,5 - 0,0
27.09.2020 07:00:00 9,2 4,2 - - 22 12 - - NW 1013,1 - 0,0
27.09.2020 06:00:00 9,9 4,3 - - 24 13 - - NNW 1013,1 - -
27.09.2020 05:00:00 10,1 4,3 - - 22 12 48 26 NNW 1013,6 - 0,0
27.09.2020 04:00:00 10,1 4,6 - - 21 11 - - NNW 1013,4 - 0,0
27.09.2020 03:00:00 10,2 4,5 - - 22 12 - - NNW 1013,7 - 0,0
27.09.2020 02:00:00 10,5 4,5 - - 26 14 - - NNW 1014,0 - 0,0
27.09.2020 01:00:00 10,7 4,5 - - 22 12 - - NNW 1014,1 - 0,0
27.09.2020 00:00:00 10,9 4,7 - - 21 11 - - NNW 1014,4 - 0,0
26.09.2020 23:00:00 10,9 5,1 - - 24 13 - - NNW 1014,4 - 0,0
26.09.2020 22:00:00 11,1 5,5 - - 21 11 - - NNW 1014,2 - -
26.09.2020 21:00:00 11,1 5,8 - - 21 11 - - NNW 1014,1 - 0,0
26.09.2020 20:00:00 11,4 5,5 - - 16 9 - - NNW 1013,8 - 0,0
26.09.2020 19:00:00 11,3 5,8 - - 22 12 46 25 NNW 1013,5 - 0,0
26.09.2020 18:00:00 12,1 5,0 - - 28 15 - - NW 1013,0 - 0,0
26.09.2020 17:00:00 12,1 4,7 - - 24 13 48 26 NNW 1012,9 - -
26.09.2020 16:00:00 12,7 4,3 - - 28 15 50 27 NNW 1012,3 - 0,0
26.09.2020 15:00:00 12,5 3,4 - - 24 13 - - NNW 1012,1 - 0,0
26.09.2020 14:00:00 12,5 3,3 - - 26 14 - - NNW 1012,2 - 0,0
26.09.2020 13:00:00 12,0 2,7 - - 22 12 - - NW 1012,4 - 0,0
26.09.2020 12:00:00 11,5 3,6 - - 24 13 - - NW 1012,2 - 0,0
26.09.2020 11:00:00 10,1 2,2 - - 24 13 - - NW 1012,5 - 0,0
26.09.2020 10:00:00 9,0 2,0 - - 24 13 - - NW 1012,4 - 0,0
26.09.2020 09:00:00 7,6 2,3 - - 21 11 - - NW 1012,3 - 0,0
26.09.2020 08:00:00 4,7 2,8 - - 4 2 - - W 1012,3 - 0,0
26.09.2020 07:00:00 4,4 2,3 - - 8 4 - - WNW 1012,1 - 0,0
26.09.2020 06:00:00 5,3 2,8 - - 9 5 - - WNW 1011,8 - 0,0
26.09.2020 05:00:00 5,7 3,3 - - 8 4 - - WNW 1011,8 - 0,0
26.09.2020 04:00:00 6,5 3,6 - - 5 3 - - W 1011,6 - 0,0
26.09.2020 03:00:00 7,8 4,4 - - 13 7 - - NW 1011,3 - 0,0
26.09.2020 02:00:00 7,9 4,8 - - 15 8 - - WNW 1011,2 - 0,0
26.09.2020 01:00:00 8,1 4,7 - - 13 7 - - WNW 1011,0 - 0,0
26.09.2020 00:00:00 9,0 4,8 - - 15 8 - - WNW 1010,8 - 0,0
25.09.2020 23:00:00 9,7 5,0 - - 22 12 - - NW 1010,5 - 0,0
25.09.2020 22:00:00 10,0 4,5 - - 15 8 - - WNW 1010,4 - 0,0

tt = temperature
td = dewpoint
tt -20cm = temperature -20cm
tt -100cm = temperature -100cm
ff = wind speed
fx = gusts
dd = wind direction
ppp = reduced air pressure
vv = visibility
rr = precipitation

Next stations